Wind_Speed
16 17 17 17 17 17 16 16 15 16 16 16 16 16 15 15 16 16 15 15 15 15 13 12 11 10 10 10 9 8 8 8 7 7 6 6 6 7 7 6 7 8 7 8 8 8 7 5 8 8 5 5 5 4 3 4 6 4 3 3 4 2 2 1 1 2 3 3 3 4 4 4 4 3 2 1 3 6 6 5 5 6 5 3 3
17 18 18 17 18 18 17 16 16 16 16 17 17 16 16 15 16 16 15 15 14 14 13 11 10 9 9 9 8 8 8 8 7 7 6 6 8 8 6 5 7 8 7 8 8 7 6 5 6 7 5 6 6 4 3 4 5 4 3 3 3 1 3 3 1 1 2 3 3 3 4 4 2 2 2 3 5 5 5 6 5 6 6 3 2
19 19 19 18 19 19 18 17 17 16 16 17 17 17 17 15 16 16 15 15 14 14 13 11 10 9 8 8 7 7 7 7 7 7 6 5 7 7 6 8 7 6 6 7 6 5 6 6 4 4 5 6 6 4 3 2 3 4 3 3 3 1 4 6 2 2 1 3 4 2 3 3 2 3 4 4 5 4 3 5 5 4 5 4 3
19 19 19 19 20 19 18 18 18 17 17 18 17 17 17 16 17 17 16 16 15 15 13 11 10 10 9 7 7 7 7 7 7 7 7 6 6 6 6 7 8 5 5 5 4 6 8 7 4 3 4 6 5 4 3 2 1 2 1 2 4 3 2 5 3 2 2 2 3 1 2 4 3 2 3 5 5 5 3 4 3 3 5 3 2
20 20 19 19 20 20 19 19 18 18 18 18 18 18 17 17 18 17 16 16 15 16 15 12 13 13 12 9 8 9 8 7 8 8 8 7 7 6 5 6 8 6 6 6 4 5 7 6 6 4 3 5 4 2 2 1 1 0 1 1 3 2 1 2 3 1 1 1 2 2 2 3 3 3 3 4 7 6 4 5 5 3 3 5 7
19 20 20 20 20 20 19 20 19 19 18 18 18 18 18 17 18 18 17 16 15 16 16 14 14 14 12 11 9 9 8 8 8 8 8 7 6 7 6 5 7 6 6 7 5 5 6 5 5 4 2 3 5 4 3 2 2 1 1 2 2 2 1 2 2 2 1 1 1 1 1 2 3 3 3 5 7 6 7 8 7 4 3 7 9
19 19 20 20 20 20 20 20 20 20 19 19 18 18 18 18 19 18 18 16 15 17 17 14 14 13 11 10 8 8 8 8 8 7 7 6 5 6 6 6 7 6 5 5 5 4 4 4 4 4 2 2 3 4 3 2 2 2 2 1 1 2 1 2 2 2 3 2 0 1 2 3 4 3 3 5 6 6 8 7 7 8 7 10 9
20 20 20 20 20 21 21 21 20 20 19 20 19 18 19 19 19 19 18 17 15 16 17 15 15 14 12 10 9 8 8 8 8 7 6 6 5 5 6 6 6 8 6 5 4 4 3 3 3 4 4 3 3 3 2 2 3 3 3 2 2 2 1 2 3 3 4 2 1 3 4 4 4 4 4 4 6 7 7 7 7 10 9 9 9
21 21 20 20 20 20 21 21 20 20 20 20 19 19 19 19 20 19 18 18 16 16 18 16 14 13 13 11 9 8 7 7 8 7 7 7 7 7 7 6 5 7 8 6 4 5 4 3 3 4 4 3 3 4 3 3 3 3 2 1 1 1 2 3 2 2 5 4 4 4 5 5 5 5 6 6 7 7 7 8 8 10 9 7 7
21 21 21 20 20 20 20 20 20 20 20 20 20 20 20 19 20 20 18 18 17 17 17 17 15 13 13 12 10 9 8 7 8 7 8 8 7 8 8 7 5 5 6 6 5 5 5 4 3 3 3 2 4 6 4 3 3 2 2 3 3 3 2 3 3 3 5 5 5 5 5 6 6 6 7 7 7 8 8 9 9 10 10 7 8
22 21 21 20 20 20 20 20 21 21 20 21 20 20 20 20 20 21 19 18 17 17 17 16 16 14 13 13 11 10 9 8 9 8 8 9 8 7 7 7 6 5 5 6 5 5 6 5 4 3 4 4 4 4 3 3 2 1 3 5 5 4 3 3 4 4 5 6 6 6 6 6 6 6 7 6 7 9 9 10 10 11 10 9 9
23 22 22 21 21 20 20 20 20 21 21 21 21 20 21 20 20 21 20 19 18 17 17 16 16 15 13 13 12 12 11 9 10 10 9 8 7 7 7 7 7 7 7 6 6 6 7 6 6 5 5 5 4 3 4 5 3 1 3 4 4 5 4 4 4 4 5 6 6 7 7 7 7 7 7 6 8 9 9 10 11 10 10 10 10
24 23 23 23 22 22 21 21 20 20 21 22 21 21 21 21 21 21 20 20 19 18 17 17 17 16 14 14 14 13 13 12 11 10 9 8 7 8 8 8 8 8 8 7 7 7 7 6 7 7 6 6 6 6 6 7 6 4 3 4 4 5 5 4 5 5 6 7 7 7 8 8 8 8 7 7 9 9 9 11 11 10 10 10 10
25 24 24 23 23 22 22 21 21 20 20 21 21 21 21 21 21 22 21 21 20 19 18 18 17 17 16 15 14 14 14 14 12 10 9 8 8 8 8 7 7 8 8 8 7 8 7 7 7 7 7 7 6 7 6 6 6 5 5 5 4 6 7 6 6 6 6 7 7 8 8 8 8 8 9 8 9 9 9 11 11 11 11 10 10
26 25 25 24 24 23 23 22 21 21 20 20 21 21 21 21 22 22 22 22 21 20 19 19 18 17 17 16 15 14 14 13 12 10 10 9 9 9 9 8 7 7 8 8 9 9 8 8 8 7 7 7 6 6 5 5 7 6 6 6 5 6 8 7 7 6 7 7 7 8 9 9 9 8 9 9 9 10 9 9 10 11 11 10 10
26 26 25 24 24 24 23 23 22 21 21 20 21 22 21 20 21 22 22 22 22 22 20 19 19 18 18 18 16 15 14 13 13 12 12 11 10 9 10 9 8 8 8 8 9 9 9 9 8 7 7 7 7 7 6 6 8 7 7 7 6 5 7 8 8 7 7 8 8 8 8 9 9 9 10 9 9 10 9 9 10 9 11 11 10
26 26 26 26 25 24 23 23 23 21 21 21 20 21 21 20 21 21 22 21 21 22 21 20 19 18 18 18 18 16 16 14 13 13 12 12 11 10 10 9 9 9 8 8 8 9 9 9 8 7 7 7 6 7 6 7 9 7 7 8 7 6 8 10 9 7 8 8 8 8 8 9 9 9 10 9 9 9 9 10 10 9 9 10 10
26 26 27 27 25 25 24 23 23 22 21 21 20 20 20 19 20 21 22 22 22 22 21 20 19 19 18 18 18 17 16 15 14 13 12 12 12 11 10 10 10 10 9 8 8 9 9 9 9 9 9 8 8 7 7 8 9 7 7 9 8 7 9 10 9 8 8 8 8 8 8 9 9 9 10 10 9 9 9 10 10 10 10 10 10
26 26 26 27 26 25 25 23 22 22 21 21 20 19 20 20 19 20 21 21 21 21 21 20 20 19 18 18 19 18 16 16 14 13 13 12 12 12 11 11 10 10 10 10 10 9 9 9 9 9 9 9 8 8 9 10 9 7 7 8 7 8 10 9 8 8 8 8 8 8 9 9 9 10 10 10 10 10 10 10 9 10 12 11 11
24 26 26 26 27 26 25 24 23 22 21 20 21 20 20 20 19 19 20 21 21 20 20 21 20 18 18 18 18 18 17 16 15 15 14 13 13 12 12 12 11 11 11 11 11 10 9 9 8 7 8 8 8 7 8 9 9 9 8 7 7 9 11 9 8 8 8 8 8 9 10 9 9 10 10 10 10 10 10 10 11 12 12 12 12
22 25 27 26 27 26 25 24 23 22 22 21 21 21 20 19 20 20 20 20 21 21 20 20 19 18 18 17 17 17 18 17 16 15 15 14 13 13 12 12 12 11 11 11 11 11 10 10 9 9 8 8 9 10 9 9 11 11 9 8 9 10 11 10 9 9 9 9 9 11 11 10 9 10 10 10 11 11 10 10 11 11 12 12 12
23 23 26 26 26 27 25 24 24 23 22 22 21 21 20 20 20 20 20 20 20 20 20 20 19 19 18 17 17 17 17 17 16 16 16 14 14 13 13 12 12 12 12 11 11 10 10 11 10 10 10 8 9 11 11 10 11 11 10 9 9 10 11 10 10 10 10 9 9 11 11 10 9 9 10 9 10 11 10 10 10 10 12 12 11
24 21 24 26 25 25 24 24 25 23 23 23 21 21 21 20 20 20 20 20 20 20 20 20 19 19 18 18 17 16 16 16 16 16 16 15 14 13 13 13 12 12 11 11 11 11 10 11 10 10 11 11 10 11 11 10 11 11 11 10 9 10 12 11 10 10 10 9 9 10 10 9 9 9 10 9 10 11 10 10 10 10 12 12 12
25 21 22 25 25 25 24 23 24 24 23 23 22 21 21 20 20 19 19 20 20 19 20 20 20 18 18 18 17 16 16 16 16 16 15 15 14 13 13 13 12 12 11 11 11 11 10 11 11 11 13 13 11 10 10 10 11 12 12 11 11 11 12 11 10 11 11 10 10 11 10 9 9 10 10 10 10 10 10 10 11 11 12 13 12
23 20 21 24 25 26 26 24 23 23 23 23 23 22 21 21 20 19 19 19 19 19 19 20 21 19 17 17 17 17 16 16 16 16 15 15 14 14 13 13 12 12 12 12 12 11 11 12 12 12 13 13 11 11 11 11 12 10 10 11 11 11 12 11 11 11 11 11 12 12 11 10 10 10 11 10 10 10 10 11 11 11 12 13 13
19 18 20 22 24 24 25 26 25 23 23 23 23 22 21 22 22 21 20 20 20 20 19 20 21 19 18 18 18 17 17 17 17 16 15 14 14 14 13 13 13 12 12 12 12 12 12 12 12 12 12 12 12 11 11 11 11 10 11 12 10 10 12 10 10 12 12 13 14 13 12 11 12 11 11 11 10 11 11 11 11 11 11 12 15
18 18 20 21 23 24 24 25 24 23 23 23 23 23 23 24 24 23 22 22 22 21 21 22 21 19 18 19 18 18 17 17 17 16 16 15 14 14 14 14 13 13 13 13 13 13 13 13 13 12 12 13 13 11 11 12 11 10 12 13 10 10 13 12 12 13 13 14 15 14 13 13 12 12 13 12 11 11 12 12 11 12 12 13 15
18 20 21 21 22 22 23 23 22 22 23 23 23 24 23 23 23 22 22 22 22 22 23 23 21 18 19 19 18 18 17 17 16 16 16 16 14 13 13 13 13 13 14 14 14 14 14 13 13 13 13 13 12 12 13 14 12 11 13 13 12 13 14 13 13 14 14 15 16 16 15 15 14 13 14 15 13 12 14 14 14 14 14 15 16
17 19 21 21 20 20 22 22 21 20 21 20 20 21 22 21 21 20 21 22 21 22 22 22 21 20 19 18 18 17 16 16 16 16 16 15 15 14 13 12 13 14 13 14 14 14 14 14 15 15 14 14 14 15 16 15 13 12 12 11 12 14 14 13 14 15 15 16 17 17 17 17 16 13 15 17 17 16 17 17 16 16 16 17 18
14 17 18 19 19 18 20 20 20 19 19 19 19 19 19 20 20 20 21 21 21 21 21 21 21 21 19 18 19 19 17 17 19 19 19 18 17 16 14 12 13 13 13 13 13 14 14 14 15 14 12 13 15 16 16 14 12 12 12 12 12 13 13 13 15 16 16 17 18 18 17 17 17 15 16 19 20 18 17 15 15 16 16 18 20
11 16 17 19 20 18 18 19 19 19 19 19 19 19 19 19 20 20 20 20 21 21 20 20 20 19 19 20 21 21 21 22 23 24 23 21 20 19 17 16 15 14 14 13 13 14 14 13 14 13 10 10 14 15 15 13 12 12 13 12 12 12 12 13 14 15 15 16 17 18 17 18 17 16 18 20 20 18 17 16 17 17 18 19 20
6 10 12 15 17 17 16 17 17 18 18 18 18 18 18 18 18 18 19 19 19 19 19 20 20 19 20 22 23 22 22 23 23 23 22 21 21 21 20 20 20 17 14 14 13 14 13 12 15 16 12 10 11 12 13 13 12 13 14 13 12 11 12 13 13 14 16 16 17 18 18 17 16 16 18 19 18 17 18 19 20 20 21 22 22
3 4 7 9 10 11 13 14 14 14 14 15 16 15 15 16 16 17 17 17 16 16 17 18 19 20 21 22 23 22 21 21 21 22 22 21 20 22 22 22 22 19 16 15 15 14 13 14 16 17 15 12 10 9 11 13 14 15 16 16 16 15 15 15 14 15 16 16 17 18 18 17 16 17 19 18 15 15 17 19 22 24 24 24 24
6 6 7 8 6 3 5 8 10 10 10 11 12 12 12 13 14 14 14 14 13 14 15 15 18 20 21 21 22 22 21 21 21 21 20 19 18 20 21 22 22 20 17 17 16 13 14 17 17 15 16 16 13 11 13 15 16 18 18 18 18 19 19 18 18 16 15 16 19 21 21 21 21 20 21 22 20 19 20 22 25 26 25 24 23
12 10 10 10 7 5 6 8 9 10 10 11 11 11 10 10 12 12 13 13 13 14 14 14 16 18 19 20 21 22 21 21 21 20 20 19 19 20 21 23 23 20 18 20 19 15 14 15 15 15 18 18 16 15 17 19 20 20 20 19 19 20 20 19 18 17 17 19 21 23 24 25 24 24 25 25 24 24 25 25 25 25 24 23 23
15 12 11 11 11 10 11 12 11 10 10 12 12 11 10 9 10 12 12 12 13 14 13 13 15 17 19 21 22 20 19 20 20 20 19 19 21 22 23 23 22 20 20 21 20 17 16 15 12 12 14 15 16 18 19 19 19 19 18 18 18 19 19 19 19 19 20 22 23 24 24 24 24 25 27 26 25 26 27 27 27 26 27 28 27
13 12 11 13 13 12 12 12 10 9 9 11 12 12 11 11 12 13 13 13 15 16 16 15 16 17 19 20 20 20 20 18 17 17 16 17 20 23 21 19 20 22 21 20 18 18 19 18 15 14 15 14 16 17 18 17 17 17 17 17 17 18 18 19 20 20 21 21 20 21 21 20 21 24 27 27 28 29 29 30 31 32 32 33 30
11 12 12 13 13 12 11 10 10 9 9 10 12 13 12 12 12 13 14 15 16 17 17 17 16 16 17 19 20 21 21 18 17 17 16 17 20 22 21 19 20 21 19 18 19 20 20 18 17 16 16 15 15 16 16 17 17 17 18 18 18 18 17 18 19 20 20 18 17 18 20 20 21 25 27 28 28 29 29 29 30 31 31 32 30
9 12 13 13 12 12 11 10 10 10 9 9 10 11 11 11 11 11 12 13 13 13 15 16 15 14 16 16 17 17 15 16 20 21 18 17 17 18 20 22 22 19 17 17 19 21 20 18 16 15 15 14 14 15 16 17 18 18 17 17 17 17 17 18 18 19 18 15 14 17 20 21 22 24 24 24 24 24 23 23 23 24 25 26 27
9 13 15 13 11 11 12 12 12 12 12 11 10 11 11 11 9 8 8 8 9 11 13 15 16 16 16 14 14 13 12 15 20 19 17 18 17 18 20 22 22 20 19 18 18 18 16 14 12 13 13 13 13 14 14 14 14 13 13 12 12 12 12 13 13 14 12 9 10 15 18 19 20 20 20 20 19 19 19 19 19 20 21 23 24
11 17 19 18 16 15 15 14 14 14 14 14 13 12 12 11 9 9 8 6 5 6 8 10 13 15 14 12 12 10 10 13 15 14 14 16 17 19 20 20 20 18 17 16 14 13 13 10 7 7 8 8 8 8 8 8 7 7 7 7 7 8 9 9 10 10 8 7 10 14 16 17 17 17 17 17 17 17 18 18 18 18 19 21 22
13 17 20 22 24 23 21 18 17 17 16 15 14 15 14 13 14 14 12 11 9 7 6 6 6 7 8 7 6 6 6 8 7 6 8 9 10 12 13 12 10 9 9 9 8 8 8 6 2 2 2 2 2 1 1 2 3 4 5 6 7 8 8 9 9 9 8 9 12 14 15 15 15 15 15 14 15 15 16 16 16 16 15 16 17
13 15 17 21 25 26 24 22 22 23 21 17 17 20 20 19 20 19 16 15 15 14 13 14 14 13 14 14 12 10 9 7 5 5 5 5 5 6 6 5 4 4 5 6 6 5 4 3 4 4 5 4 3 2 0 2 3 5 6 7 8 8 8 9 9 9 9 10 11 13 14 14 14 14 14 13 13 14 14 14 14 13 12 12 12
16 17 18 22 24 25 25 25 25 26 25 23 22 24 24 24 24 22 20 19 19 18 18 18 19 18 18 17 17 16 13 11 11 9 8 8 9 9 9 9 10 10 10 11 11 10 8 8 8 7 6 4 2 2 3 4 5 7 8 9 9 8 8 8 9 9 10 10 10 12 12 12 12 13 13 13 12 12 12 12 12 12 11 10 10
18 19 22 26 28 28 28 28 28 28 28 27 26 26 27 26 24 23 22 21 21 21 21 21 21 19 17 17 17 17 16 15 14 14 14 14 14 13 13 12 12 12 10 9 8 7 6 7 7 5 6 7 6 5 5 5 5 7 9 9 8 8 8 7 7 8 9 9 9 10 10 10 10 11 13 14 13 11 10 9 10 11 11 12 13
19 21 24 30 33 33 33 32 30 29 29 28 27 26 26 25 23 22 22 22 22 22 23 23 23 21 19 18 18 17 16 14 13 13 12 11 10 11 12 12 10 9 7 6 6 6 5 5 5 3 4 5 5 4 3 5 6 7 8 8 7 7 7 6 7 8 8 7 8 8 8 8 7 11 14 14 13 13 11 10 13 15 14 15 15
21 22 23 27 30 32 32 31 29 27 27 27 27 27 27 27 25 24 24 24 24 25 25 24 23 22 21 20 19 18 16 14 13 12 10 8 9 11 12 12 10 9 8 7 7 7 5 4 3 1 2 2 1 2 6 7 6 6 6 6 6 6 6 5 6 7 7 6 7 7 6 5 7 11 13 13 13 15 13 12 13 13 11 11 11
21 21 22 23 25 27 27 27 25 23 22 22 24 24 24 25 24 23 24 25 26 27 26 24 23 22 22 21 19 18 17 15 14 13 11 11 11 11 10 10 9 9 8 7 6 6 6 5 3 3 5 5 5 6 6 4 4 4 5 6 6 6 6 5 6 7 7 7 6 5 6 7 8 9 10 9 10 12 12 9 8 7 7 8 8
21 22 23 23 23 24 25 25 24 22 21 21 21 21 21 21 20 20 20 21 22 23 22 20 20 20 20 19 18 17 17 15 15 13 12 12 12 11 10 9 8 8 7 6 6 6 6 5 4 3 4 5 5 4 3 3 4 4 5 6 6 6 6 6 6 6 6 5 3 4 6 7 6 7 7 6 6 8 8 7 7 7 7 8 7
22 24 24 23 22 24 26 25 24 23 22 21 20 19 19 18 18 18 18 18 18 18 17 16 16 16 15 15 15 16 16 15 14 13 13 12 11 10 10 9 8 7 6 5 5 5 4 3 2 2 1 1 2 3 4 4 5 6 6 6 7 7 6 6 6 5 4 4 5 4 4 5 4 5 5 5 6 7 7 7 7 8 8 8 7
23 24 24 23 22 23 24 24 22 21 20 20 19 18 17 17 17 16 16 17 16 16 16 15 15 15 15 15 16 16 16 15 14 13 13 13 12 11 9 9 8 7 6 6 5 5 4 3 3 3 3 3 4 4 5 6 6 6 6 6 7 6 6 6 5 3 2 4 5 4 4 3 3 4 4 5 5 6 6 6 6 6 7 7 7
Wind_Direction
162 163 161 158 158 157 157 159 160 158 160 162 162 162 161 159 158 156 156 160 161 157 152 155 157 153 155 153 150 147 144 145 140 142 140 139 158 141 124 147 146 136 140 138 138 143 139 145 157 144 143 167 155 138 140 128 110 70 48 58 28 14 53 70 111 101 133 149 157 158 166 175 171 163 139 143 216 223 215 205 210 212 204 202 219
162 164 162 160 160 159 160 161 162 162 163 165 165 164 164 163 162 160 161 163 164 163 158 158 160 155 156 156 153 150 147 149 144 144 145 159 169 140 128 166 153 143 148 142 137 138 142 143 155 157 157 181 181 157 153 139 110 61 21 16 17 149 115 85 74 96 143 171 157 167 185 177 189 220 218 203 219 237 224 223 221 222 236 213 201
165 166 164 164 162 160 161 164 164 164 166 167 168 167 165 166 165 164 165 165 165 168 163 160 161 154 154 154 151 150 147 151 151 150 149 163 167 148 164 178 150 143 143 135 137 141 145 129 132 171 169 180 183 161 163 150 99 50 33 36 37 165 135 112 95 339 21 156 156 171 181 189 229 258 252 222 237 264 240 244 236 248 268 202 209
168 168 167 166 165 164 164 165 167 167 168 169 169 169 168 170 170 168 169 168 169 173 167 161 163 158 154 152 152 154 150 153 157 158 155 160 167 166 183 164 134 148 151 137 174 176 152 134 139 183 176 178 186 171 153 116 79 46 59 113 77 28 70 107 105 348 3 125 154 176 152 188 224 272 253 230 261 278 250 241 229 288 299 223 250
171 169 169 168 167 168 166 166 169 169 172 173 172 172 171 174 175 171 172 171 174 177 169 165 170 165 161 160 162 161 158 162 167 170 169 171 173 169 187 166 141 162 166 149 192 185 159 160 162 164 171 171 176 183 157 127 187 269 313 108 80 74 32 38 59 44 327 98 131 192 162 187 233 285 277 264 284 301 316 279 255 281 298 286 288
176 171 170 171 169 169 168 169 172 172 174 176 174 174 173 175 178 176 174 173 178 181 173 170 175 171 167 167 167 167 167 172 175 177 176 177 180 170 178 179 156 167 168 153 180 183 165 175 161 146 179 181 173 184 184 177 186 210 336 24 39 131 159 326 359 68 327 336 97 195 205 234 270 280 289 306 296 304 329 301 279 294 298 292 283
179 175 172 172 172 172 171 172 175 174 176 176 176 176 173 175 179 178 175 174 179 184 178 176 177 174 172 170 172 175 171 173 174 170 171 172 180 172 168 180 169 164 178 176 182 183 167 178 171 153 164 207 189 175 175 186 183 189 193 161 247 232 146 293 292 359 342 307 269 274 289 286 294 296 296 320 307 298 316 303 282 291 294 294 292
180 179 176 173 175 176 175 176 177 176 176 176 176 177 175 176 180 179 177 175 180 187 184 180 180 178 176 174 178 181 176 174 169 163 167 165 166 164 161 185 179 162 183 208 188 182 186 187 186 166 165 189 186 171 194 217 209 215 225 233 254 263 307 288 294 323 314 321 341 307 312 304 295 297 288 295 298 298 313 312 298 296 292 297 308
183 181 179 176 177 178 177 177 179 178 177 177 177 177 176 178 180 181 180 178 181 189 188 183 184 184 180 178 181 181 178 178 172 167 172 168 168 172 166 178 189 175 184 205 196 194 204 190 186 179 164 165 178 187 203 215 228 247 254 264 280 270 276 284 298 305 295 318 338 314 314 315 305 301 291 282 290 307 316 310 307 301 292 304 319
186 183 182 179 177 178 178 178 180 180 178 177 177 178 177 179 181 183 184 183 185 193 193 189 189 190 184 183 186 181 176 177 177 179 184 182 180 186 184 175 182 193 192 205 207 197 201 191 187 191 161 171 205 201 207 238 266 298 280 255 253 248 262 288 292 297 292 298 309 305 306 310 310 311 309 303 303 308 308 304 305 301 300 317 319
187 184 183 181 177 178 179 179 180 180 179 177 178 178 178 180 182 185 187 186 190 197 196 193 193 193 189 187 188 185 184 185 188 194 197 193 185 187 198 186 177 190 198 215 215 197 205 192 173 201 202 202 218 199 205 254 300 351 260 265 279 274 269 278 282 290 295 294 295 290 291 297 302 307 307 309 308 303 303 306 305 305 310 318 312
187 184 183 181 178 180 181 179 180 180 179 179 179 179 179 181 183 186 189 187 190 197 196 195 194 194 194 192 192 192 190 192 198 204 204 199 192 191 202 199 189 189 192 207 205 196 214 202 176 200 212 201 204 201 204 217 218 219 244 263 287 290 288 288 287 293 294 294 293 288 288 290 292 296 296 295 298 297 300 302 302 309 314 311 310
187 185 184 183 179 181 181 178 180 179 180 181 180 180 179 181 184 186 189 188 188 193 194 194 194 195 197 196 198 200 196 197 201 206 205 200 199 202 207 205 197 193 193 199 198 195 212 215 194 202 217 211 205 213 218 213 207 212 242 254 263 279 283 280 283 287 287 289 291 292 294 292 290 294 295 294 295 295 298 301 307 314 311 309 311
188 186 184 184 181 181 181 179 180 179 181 182 181 182 180 180 184 186 189 190 189 190 192 194 194 196 199 198 200 204 205 206 205 205 207 206 204 203 207 207 203 202 198 196 196 193 203 221 217 213 226 229 221 224 230 235 232 225 237 247 250 266 268 271 282 287 287 289 291 292 293 294 295 300 299 295 297 301 305 307 311 314 310 312 315
187 187 184 184 182 181 182 180 181 180 181 184 183 182 181 181 185 187 190 192 191 190 192 194 195 198 200 200 200 203 207 210 209 207 206 207 209 207 205 204 203 203 200 197 200 195 196 218 229 224 231 236 234 236 235 248 254 243 246 251 247 263 274 282 286 280 280 287 291 294 296 298 299 301 300 298 299 302 305 308 312 313 312 315 316
186 187 185 185 183 182 182 181 182 182 181 184 184 182 183 184 185 188 191 194 194 193 193 195 196 199 201 201 200 202 204 206 209 210 208 206 207 208 208 206 200 197 199 202 206 204 202 215 224 225 239 242 237 242 233 234 252 254 258 261 252 257 272 277 279 279 281 284 287 291 295 297 298 298 298 299 298 296 298 303 306 308 309 313 312
189 186 185 185 185 182 182 182 183 183 182 184 184 183 184 185 186 189 191 192 196 197 195 196 196 199 202 203 201 203 205 206 210 213 212 211 210 209 211 210 206 203 204 209 212 215 214 213 209 211 236 245 239 250 250 244 254 255 254 261 259 250 252 259 269 275 276 281 284 286 291 293 295 297 298 300 298 297 298 298 298 296 295 302 305
190 186 186 185 186 184 183 184 184 185 185 185 185 184 186 188 189 191 191 191 196 199 197 197 199 200 202 204 202 204 208 209 211 212 211 213 214 214 212 211 213 210 208 208 208 217 225 222 212 205 216 228 226 230 238 246 257 254 248 260 264 259 256 259 267 273 274 277 279 278 281 285 289 292 295 297 296 294 295 295 295 294 290 293 299
192 186 186 185 186 185 184 185 185 186 186 185 186 187 188 191 192 193 194 194 195 197 197 198 201 201 203 206 204 204 207 209 211 212 211 213 214 215 214 211 212 212 211 208 202 208 223 231 229 218 220 232 234 228 231 243 255 250 245 259 271 275 276 272 267 271 274 274 275 276 277 280 285 289 291 293 293 288 287 290 290 288 289 292 294
198 187 186 187 188 186 185 186 185 186 187 187 188 190 191 192 194 195 196 196 196 196 198 199 200 201 204 208 207 205 206 208 210 211 212 214 213 213 214 212 211 211 214 216 212 210 216 225 231 227 225 230 232 231 235 246 255 251 243 243 245 257 270 275 268 263 265 268 269 270 274 277 280 285 289 290 290 285 280 280 280 282 288 294 295
201 191 187 188 189 187 186 186 186 187 188 189 191 193 193 192 195 196 196 197 197 197 198 199 200 202 203 205 206 207 208 208 209 211 212 213 214 212 212 213 212 212 213 218 220 216 216 219 223 226 225 224 224 226 227 234 247 256 252 239 235 248 263 269 265 259 256 259 264 268 274 279 280 284 287 288 289 286 280 277 277 282 288 293 298
200 196 191 189 189 188 186 187 188 188 188 191 192 193 194 193 194 197 198 199 199 199 200 200 200 203 204 205 206 207 209 210 211 213 214 213 213 213 211 212 214 214 214 216 219 220 219 221 224 227 226 222 227 234 232 231 241 253 256 249 247 261 272 268 260 262 262 258 262 268 273 278 279 281 284 287 289 289 291 292 289 289 292 296 302
200 199 191 189 188 186 187 188 190 191 190 192 194 194 195 195 195 197 198 199 200 200 202 202 203 205 206 206 208 208 209 211 212 214 215 215 214 213 213 213 215 217 218 217 220 222 221 220 221 225 226 223 230 239 237 234 238 244 249 248 242 249 265 268 261 265 270 264 262 268 271 273 274 275 277 281 286 289 295 298 294 290 290 292 295
197 198 191 190 190 190 191 191 192 194 193 193 194 195 196 196 196 197 198 199 200 200 202 205 205 206 208 209 210 210 211 212 214 216 217 216 216 215 215 217 218 220 222 222 222 221 219 221 221 223 227 227 227 235 239 238 241 246 250 251 244 242 251 258 258 259 262 262 261 264 266 266 267 271 274 279 285 290 293 293 292 292 293 296 297
196 198 196 194 196 199 201 198 196 196 195 194 194 195 196 197 198 198 198 198 199 200 202 205 207 207 208 210 211 212 213 214 215 217 218 218 217 216 217 219 220 221 222 222 221 218 218 224 225 226 232 235 229 230 239 239 236 242 252 256 256 257 256 257 263 267 269 270 268 265 268 271 271 273 276 279 282 284 287 291 293 295 301 303 299
203 202 203 201 198 199 201 199 198 197 195 193 194 196 198 200 202 202 201 202 201 201 201 205 209 209 208 212 213 213 215 215 216 217 218 218 218 217 218 219 220 221 221 221 220 219 219 223 228 229 233 241 240 233 236 241 238 237 246 250 253 262 267 271 275 277 279 280 275 271 272 273 272 272 276 279 281 284 286 290 293 295 297 293 290
208 204 204 205 200 195 195 195 194 196 197 196 198 202 203 206 208 205 206 210 209 208 209 212 216 214 210 212 214 214 215 215 216 216 215 216 218 219 219 219 219 219 219 219 220 221 221 223 230 234 233 240 246 240 233 238 244 246 248 248 246 255 266 276 282 281 282 282 279 278 276 273 274 278 278 278 280 284 286 287 291 294 291 286 288
211 206 200 201 199 193 190 191 192 194 197 197 199 202 204 208 211 205 204 210 212 213 217 222 226 221 213 213 214 214 215 213 215 217 215 215 218 219 220 220 220 221 222 222 221 222 224 224 227 232 233 237 242 242 239 239 241 247 251 250 250 255 262 271 277 278 279 281 282 283 280 277 278 277 275 277 281 284 284 285 289 291 288 288 291
212 209 200 197 196 192 188 189 190 191 193 194 194 197 201 207 210 204 202 208 210 211 216 221 226 226 219 213 211 211 212 210 211 211 210 214 217 220 223 223 222 223 225 226 225 224 227 227 229 234 237 236 235 237 243 246 246 250 255 255 256 260 265 273 278 279 280 281 285 288 286 282 278 273 273 278 281 283 283 285 290 292 292 294 297
211 213 208 201 198 196 192 190 191 191 190 191 192 194 198 204 208 205 203 208 211 211 213 215 220 225 224 216 211 209 206 206 208 208 212 218 219 218 219 222 225 225 226 228 228 226 226 228 235 244 248 243 236 237 246 252 251 252 259 267 271 270 272 276 276 277 280 282 286 291 289 282 277 276 278 279 278 278 279 285 294 297 295 294 296
211 212 213 205 200 202 199 193 192 191 190 191 193 196 198 203 210 210 208 212 215 216 217 217 218 220 219 217 217 214 210 213 218 220 222 226 227 223 218 216 219 221 225 227 226 226 227 229 234 240 247 243 233 235 245 248 245 245 252 264 273 276 281 283 280 283 288 288 289 290 286 282 280 279 278 277 278 279 280 285 292 294 293 291 291
213 208 206 197 195 206 207 194 187 186 188 191 194 198 201 203 210 212 211 215 221 222 221 220 218 215 215 222 226 224 223 226 227 228 228 229 231 231 225 221 220 220 223 226 226 226 227 231 237 238 243 249 241 238 244 244 242 245 250 256 264 270 277 281 284 288 289 288 289 287 285 288 289 286 285 284 282 282 285 288 290 292 292 291 290
189 197 196 190 189 200 198 184 174 172 178 187 189 192 197 200 205 209 212 217 221 222 221 220 217 214 216 226 231 229 228 230 230 231 232 231 233 234 231 228 226 223 222 224 226 226 223 228 240 243 244 251 250 242 245 245 244 249 255 260 265 269 272 276 280 282 281 282 282 281 281 286 289 290 295 297 292 286 287 287 289 292 293 291 290
163 184 198 203 205 184 146 146 146 148 160 177 185 191 196 200 203 205 211 215 214 216 218 217 220 220 216 222 232 231 228 229 228 226 224 223 226 231 231 230 229 225 222 222 219 217 221 229 237 239 237 244 249 245 246 249 251 258 265 270 272 274 276 278 280 281 283 285 283 283 286 288 289 289 290 292 290 285 282 283 286 291 292 292 292
155 181 200 201 197 164 134 143 148 151 165 173 178 188 193 197 201 200 205 210 209 213 215 212 220 224 216 215 228 231 227 227 225 221 221 225 230 234 230 228 227 222 219 223 219 213 223 232 237 238 234 236 245 250 251 254 259 265 273 277 278 279 279 280 280 280 283 283 281 284 287 288 289 288 284 284 283 281 281 283 285 286 288 289 290
146 170 189 189 188 177 164 166 164 165 176 176 175 184 186 189 195 194 199 209 210 210 212 212 218 223 218 218 227 228 223 222 221 220 225 228 230 233 228 221 219 216 218 228 229 224 223 219 220 234 235 231 240 250 255 261 267 272 275 277 278 279 279 280 281 281 283 285 286 287 288 289 290 288 284 282 281 280 282 284 284 284 285 286 287
137 148 155 164 179 182 174 171 170 169 170 170 174 180 180 181 183 183 187 197 201 201 204 209 216 224 224 221 220 216 208 208 215 220 224 224 225 230 228 219 216 217 222 232 235 228 225 218 214 225 231 233 243 254 261 266 270 272 274 274 275 277 280 282 284 286 288 291 293 292 290 288 284 281 280 281 282 283 283 283 283 284 284 284 284
131 137 137 139 150 160 160 165 175 174 165 167 176 180 184 188 189 190 194 197 200 203 205 208 212 220 222 215 213 212 206 209 227 237 237 232 230 232 233 230 227 222 220 227 232 229 229 226 225 231 237 244 254 263 268 272 274 275 276 278 278 280 282 282 284 285 285 286 288 286 283 280 276 277 280 283 286 286 285 284 283 283 284 284 282
125 131 129 125 128 134 137 147 163 166 157 156 162 168 179 187 190 196 201 203 209 213 216 217 216 221 228 227 227 229 225 227 239 244 242 234 229 228 227 229 228 216 202 209 221 225 225 222 221 231 244 254 261 269 276 281 284 285 284 284 285 284 283 283 282 283 283 285 284 280 279 279 282 286 290 293 294 293 292 292 291 290 291 290 287
123 125 123 124 130 133 135 144 155 158 153 148 147 152 160 163 166 175 183 196 214 222 224 225 223 226 236 238 237 239 236 229 228 230 229 224 219 217 216 218 219 210 199 204 213 219 225 225 223 233 248 260 268 279 288 292 294 295 294 292 291 288 286 286 286 286 290 296 292 285 284 288 291 295 299 302 303 303 302 302 301 301 300 297 295
119 123 124 127 131 131 130 136 142 142 140 141 145 145 139 134 135 135 133 137 166 203 216 218 221 228 232 235 242 248 237 222 214 208 207 205 203 207 209 210 209 202 197 203 210 218 233 239 234 239 256 271 277 285 295 297 300 303 301 301 300 295 293 292 292 293 296 296 294 293 295 297 300 303 306 308 310 310 308 308 309 309 309 306 302
112 117 119 121 123 121 118 117 120 122 122 128 137 135 128 123 120 112 106 105 104 105 114 130 166 197 193 190 208 212 207 216 216 202 198 191 187 196 201 201 202 195 192 201 208 219 235 247 256 243 230 229 231 236 272 291 302 302 299 301 300 297 298 297 297 300 301 300 302 304 307 309 310 312 314 315 315 313 312 313 313 312 313 312 306
106 111 114 116 116 116 114 112 113 115 116 121 127 125 121 117 111 105 105 106 105 105 111 121 130 137 137 140 146 148 159 176 169 164 184 182 168 175 176 169 171 170 165 158 143 140 148 123 99 106 117 127 136 136 245 295 306 306 304 303 298 297 300 300 302 305 302 302 307 310 313 316 318 319 321 322 322 320 319 321 319 317 317 317 318
105 106 110 113 112 112 113 114 114 116 117 119 120 117 114 112 110 109 111 111 111 114 116 117 118 120 122 125 128 129 129 125 119 124 133 125 115 114 111 108 108 111 114 111 105 103 104 103 99 90 70 52 34 327 310 315 317 307 301 300 299 301 303 300 301 304 300 300 308 314 318 321 322 323 325 324 324 323 325 331 335 333 333 338 349
109 108 112 115 114 114 113 113 114 116 115 114 113 111 110 111 113 115 115 114 117 119 118 114 112 112 113 114 116 115 112 110 111 114 113 107 104 106 106 102 101 103 105 103 99 96 97 102 98 69 15 355 355 350 336 336 331 312 303 303 307 310 311 307 305 301 294 293 300 310 319 320 322 335 341 339 339 337 337 350 359 359 5 15 17
113 113 117 120 119 116 113 110 110 112 113 112 113 112 111 111 113 114 113 113 114 114 114 114 113 112 111 109 107 105 104 106 110 111 110 109 109 104 95 86 81 85 90 97 100 93 81 82 82 45 339 346 14 15 311 296 310 313 310 316 323 319 316 316 313 304 295 288 290 302 312 315 331 356 1 357 353 348 350 7 13 9 11 15 14
115 115 116 118 116 113 109 105 104 104 105 106 106 106 105 106 105 104 105 106 106 106 106 109 111 112 112 111 107 104 101 98 95 93 96 111 120 113 102 95 91 85 80 85 96 101 99 92 90 128 155 105 85 242 253 273 300 314 317 331 338 333 330 326 313 309 313 308 295 297 316 340 4 11 8 3 355 352 356 9 14 10 3 355 355
118 118 116 115 113 111 108 106 105 104 104 104 104 104 104 102 100 98 99 101 102 103 104 106 108 110 111 111 110 110 109 108 109 107 105 113 123 125 121 117 116 114 112 115 124 133 139 139 152 185 173 166 202 239 256 286 311 322 333 343 344 342 345 337 319 319 325 320 308 319 346 1 2 354 351 354 354 356 2 6 4 6 0 343 341
118 119 117 115 113 112 110 108 108 109 109 108 107 106 105 103 101 101 100 97 96 97 98 99 101 104 105 104 105 107 107 107 110 112 110 110 114 118 119 120 124 127 129 133 138 140 145 150 165 190 182 184 213 252 300 321 323 336 344 345 345 346 347 342 332 332 334 335 349 355 343 338 335 331 334 338 338 344 354 357 355 1 5 357 351
118 117 117 116 114 112 111 109 109 110 109 106 105 104 102 101 101 102 102 100 98 96 94 94 96 98 100 103 106 108 107 106 106 106 106 106 106 107 110 113 117 118 116 115 114 115 122 131 136 138 140 241 293 329 341 338 342 347 343 343 348 347 345 344 342 343 358 27 38 14 325 314 325 335 336 335 336 339 345 349 354 0 3 2 3
116 116 116 116 114 111 109 108 109 109 107 106 106 105 104 104 101 100 99 100 99 97 97 99 101 102 100 101 103 102 101 103 105 103 102 100 97 96 95 93 91 92 89 84 79 74 71 60 42 34 23 3 357 357 351 347 347 344 341 346 349 345 346 348 344 347 33 36 17 348 327 331 341 339 337 339 340 341 339 338 347 356 359 1 4
Height
1537 1540 1542 1544 1546 1548 1550 1552 1554 1556 1557 1559 1560 1562 1563 1564 1565 1566 1568 1569 1570 1572 1573 1575 1576 1577 1579 1580 1581 1581 1582 1583 1584 1585 1585 1585 1585 1585 1586 1586 1587 1587 1588 1589 1589 1590 1591 1591 1591 1592 1593 1593 1593 1593 1593 1593 1593 1594 1594 1594 1594 1594 1594 1595 1595 1594 1594 1594 1594 1594 1594 1594 1594 1594 1593 1593 1594 1595 1594 1594 1595 1594 1594 1593 1593
1537 1539 1541 1543 1545 1547 1549 1552 1553 1555 1556 1558 1560 1562 1563 1564 1565 1567 1568 1569 1571 1572 1573 1575 1576 1578 1579 1580 1581 1582 1582 1583 1584 1585 1586 1585 1585 1586 1587 1587 1587 1588 1588 1589 1589 1590 1591 1591 1591 1592 1592 1593 1593 1593 1593 1593 1594 1594 1595 1595 1595 1595 1594 1595 1596 1595 1595 1595 1595 1594 1594 1594 1594 1594 1594 1594 1594 1594 1594 1594 1594 1592 1591 1591 1592
1536 1538 1540 1542 1544 1546 1549 1551 1553 1555 1556 1558 1560 1561 1563 1564 1565 1567 1568 1569 1571 1572 1573 1575 1576 1578 1579 1580 1581 1582 1583 1584 1584 1585 1586 1585 1585 1586 1587 1587 1588 1588 1589 1590 1590 1591 1591 1591 1592 1592 1592 1593 1593 1594 1594 1594 1595 1595 1595 1595 1595 1595 1594 1594 1596 1595 1595 1595 1595 1595 1594 1594 1594 1594 1595 1594 1594 1593 1593 1592 1593 1592 1590 1590 1590
1535 1536 1539 1541 1543 1545 1547 1550 1552 1554 1556 1557 1559 1561 1562 1564 1565 1566 1568 1569 1571 1572 1573 1575 1576 1577 1579 1580 1581 1582 1583 1584 1584 1585 1586 1586 1586 1586 1587 1587 1588 1589 1590 1591 1591 1591 1591 1591 1592 1592 1592 1593 1593 1594 1594 1595 1595 1595 1595 1595 1594 1595 1595 1594 1594 1595 1595 1594 1594 1595 1594 1594 1594 1594 1593 1593 1593 1592 1592 1591 1591 1591 1590 1589 1589
1533 1535 1538 1540 1542 1544 1546 1549 1551 1553 1555 1557 1558 1560 1562 1563 1564 1566 1567 1569 1570 1572 1573 1574 1576 1577 1578 1580 1580 1581 1582 1583 1584 1585 1586 1586 1586 1587 1587 1587 1588 1590 1590 1591 1591 1590 1591 1591 1592 1592 1592 1593 1593 1594 1595 1595 1595 1595 1595 1594 1594 1595 1596 1595 1594 1595 1595 1594 1594 1594 1594 1594 1594 1593 1593 1592 1592 1591 1590 1590 1589 1588 1588 1588 1588
1533 1534 1537 1539 1541 1543 1545 1548 1550 1552 1554 1556 1558 1560 1561 1563 1564 1565 1567 1569 1570 1571 1573 1574 1575 1577 1578 1579 1580 1581 1582 1583 1584 1585 1585 1586 1586 1587 1588 1588 1588 1589 1589 1590 1591 1590 1590 1591 1591 1592 1593 1593 1593 1594 1594 1594 1595 1595 1595 1594 1594 1595 1596 1596 1595 1595 1595 1594 1593 1593 1593 1593 1593 1592 1592 1591 1590 1589 1589 1589 1588 1586 1586 1587 1585
1532 1534 1536 1538 1540 1542 1544 1546 1548 1551 1553 1555 1557 1559 1561 1562 1563 1565 1566 1568 1570 1571 1572 1573 1575 1576 1578 1579 1581 1581 1582 1583 1584 1585 1586 1586 1586 1587 1588 1588 1588 1589 1589 1589 1590 1590 1590 1591 1591 1592 1593 1593 1593 1594 1594 1594 1594 1595 1595 1595 1595 1595 1595 1596 1595 1594 1594 1594 1593 1593 1593 1592 1592 1591 1591 1590 1589 1588 1588 1588 1587 1586 1586 1585 1583
1531 1533 1534 1536 1539 1541 1543 1545 1547 1549 1551 1554 1556 1558 1560 1561 1562 1564 1565 1567 1569 1570 1571 1573 1574 1576 1577 1579 1580 1581 1582 1583 1584 1584 1585 1586 1587 1587 1588 1588 1588 1589 1590 1589 1589 1590 1590 1591 1591 1591 1593 1593 1594 1594 1595 1595 1594 1594 1594 1594 1594 1594 1595 1595 1594 1594 1593 1593 1592 1593 1592 1592 1591 1591 1590 1590 1589 1588 1587 1587 1586 1586 1585 1584 1582
1529 1531 1533 1535 1537 1540 1541 1544 1546 1548 1550 1552 1555 1557 1559 1560 1561 1563 1565 1567 1568 1570 1571 1572 1574 1575 1576 1578 1580 1581 1582 1582 1583 1584 1585 1585 1586 1587 1588 1588 1588 1588 1589 1589 1589 1590 1590 1590 1591 1591 1592 1593 1594 1594 1595 1594 1594 1594 1594 1594 1594 1594 1594 1594 1594 1593 1593 1592 1592 1592 1592 1591 1591 1590 1589 1589 1588 1587 1586 1586 1585 1584 1583 1583 1582
1527 1529 1532 1534 1536 1538 1540 1542 1545 1547 1549 1551 1553 1556 1558 1559 1560 1562 1564 1566 1567 1569 1570 1572 1573 1575 1576 1578 1579 1580 1581 1582 1583 1583 1584 1584 1585 1586 1586 1587 1588 1588 1589 1589 1589 1590 1590 1590 1591 1592 1592 1593 1594 1594 1594 1594 1594 1594 1594 1593 1593 1593 1593 1593 1593 1593 1593 1592 1592 1592 1591 1591 1590 1589 1589 1588 1587 1587 1586 1585 1585 1584 1582 1582 1581
1525 1528 1531 1533 1535 1537 1539 1541 1543 1546 1548 1550 1552 1554 1556 1558 1559 1561 1563 1565 1567 1568 1570 1571 1573 1574 1575 1577 1578 1579 1580 1581 1582 1583 1583 1584 1585 1585 1586 1587 1588 1589 1589 1589 1589 1590 1590 1590 1591 1592 1592 1593 1593 1593 1594 1595 1594 1594 1594 1593 1593 1592 1592 1593 1592 1592 1592 1592 1592 1591 1591 1590 1589 1589 1588 1588 1588 1587 1586 1585 1584 1583 1582 1582 1581
1523 1526 1528 1531 1533 1535 1538 1540 1542 1544 1546 1548 1551 1553 1555 1557 1558 1560 1562 1563 1566 1567 1569 1570 1572 1573 1575 1576 1577 1578 1580 1581 1581 1582 1583 1583 1584 1585 1586 1586 1587 1588 1589 1589 1590 1590 1590 1590 1591 1592 1592 1592 1592 1593 1594 1594 1593 1594 1594 1593 1592 1592 1592 1592 1592 1592 1592 1591 1591 1591 1590 1589 1589 1588 1588 1587 1587 1587 1586 1585 1584 1583 1582 1582 1581
1520 1523 1526 1529 1531 1534 1536 1539 1540 1543 1545 1547 1549 1551 1553 1556 1557 1559 1561 1562 1564 1566 1568 1569 1571 1573 1574 1575 1577 1577 1579 1580 1581 1582 1582 1583 1584 1585 1585 1586 1586 1587 1588 1589 1589 1590 1590 1590 1590 1591 1591 1591 1591 1592 1592 1592 1592 1593 1593 1592 1592 1592 1591 1591 1591 1591 1591 1591 1591 1590 1590 1589 1588 1587 1587 1587 1587 1586 1585 1584 1583 1583 1582 1581 1581
1518 1521 1524 1527 1529 1532 1534 1537 1539 1541 1544 1546 1548 1550 1552 1554 1556 1558 1560 1561 1563 1565 1567 1569 1570 1572 1573 1575 1576 1577 1578 1579 1580 1581 1582 1583 1583 1584 1585 1586 1586 1586 1587 1588 1589 1589 1590 1589 1589 1589 1590 1590 1590 1590 1590 1591 1591 1591 1591 1591 1591 1591 1591 1590 1590 1590 1591 1590 1590 1589 1589 1588 1587 1587 1586 1586 1586 1586 1585 1584 1583 1583 1582 1582 1582
1516 1519 1522 1525 1528 1530 1533 1535 1538 1540 1542 1545 1547 1549 1551 1553 1555 1556 1558 1560 1562 1564 1566 1567 1569 1571 1572 1573 1575 1576 1577 1578 1579 1580 1581 1582 1583 1584 1584 1585 1586 1586 1586 1587 1587 1588 1589 1589 1588 1589 1589 1589 1589 1589 1590 1590 1590 1590 1590 1590 1590 1590 1590 1590 1589 1590 1590 1590 1589 1589 1588 1587 1587 1587 1586 1586 1586 1585 1585 1584 1583 1582 1582 1582 1582
1514 1517 1520 1523 1526 1528 1531 1533 1536 1538 1541 1543 1545 1547 1550 1552 1553 1555 1557 1559 1561 1563 1564 1566 1568 1569 1571 1572 1574 1575 1576 1577 1578 1579 1580 1581 1582 1583 1583 1584 1585 1585 1585 1586 1586 1586 1587 1587 1588 1588 1588 1588 1588 1588 1588 1589 1589 1589 1589 1589 1589 1590 1589 1589 1589 1589 1589 1589 1589 1588 1587 1587 1587 1586 1586 1585 1585 1584 1584 1583 1583 1582 1582 1582 1581
1512 1514 1518 1521 1524 1526 1529 1531 1534 1537 1539 1542 1544 1546 1548 1550 1552 1554 1556 1558 1560 1561 1563 1565 1566 1568 1569 1571 1573 1574 1575 1576 1577 1578 1579 1580 1581 1581 1582 1583 1583 1584 1584 1585 1585 1585 1586 1586 1587 1587 1587 1587 1587 1587 1587 1588 1587 1588 1588 1588 1588 1588 1588 1588 1588 1588 1588 1588 1588 1588 1587 1587 1586 1586 1585 1585 1585 1584 1583 1583 1583 1582 1582 1581 1581
1511 1513 1516 1519 1522 1525 1527 1530 1533 1535 1538 1541 1543 1545 1547 1549 1551 1553 1554 1556 1558 1560 1562 1564 1565 1567 1568 1569 1571 1573 1574 1575 1577 1578 1578 1579 1580 1580 1581 1582 1582 1583 1583 1584 1585 1584 1584 1585 1585 1586 1586 1586 1586 1587 1587 1587 1587 1587 1587 1587 1586 1587 1587 1586 1586 1587 1587 1587 1587 1587 1587 1586 1586 1585 1585 1584 1584 1583 1583 1582 1582 1581 1581 1581 1580
1509 1511 1515 1517 1520 1523 1525 1529 1531 1534 1537 1539 1542 1544 1546 1548 1550 1552 1554 1555 1557 1559 1561 1562 1564 1566 1567 1568 1570 1571 1573 1574 1575 1576 1577 1578 1579 1579 1580 1581 1581 1582 1582 1583 1584 1584 1584 1584 1584 1584 1585 1585 1585 1585 1586 1585 1585 1586 1586 1586 1586 1585 1585 1585 1585 1586 1586 1586 1586 1586 1585 1585 1585 1584 1584 1583 1583 1583 1582 1582 1582 1581 1581 1581 1580
1508 1510 1513 1515 1518 1521 1524 1527 1529 1532 1536 1537 1540 1543 1544 1547 1549 1551 1553 1554 1556 1558 1559 1561 1563 1565 1566 1567 1568 1569 1571 1572 1573 1575 1576 1577 1578 1578 1579 1580 1580 1581 1581 1581 1582 1583 1584 1583 1583 1584 1584 1584 1585 1585 1585 1584 1584 1584 1585 1585 1585 1584 1584 1584 1584 1584 1585 1585 1585 1584 1584 1583 1583 1583 1582 1582 1582 1582 1581 1581 1581 1580 1580 1580 1580
1507 1509 1511 1514 1517 1519 1522 1526 1528 1531 1534 1536 1539 1541 1543 1545 1547 1549 1551 1553 1555 1557 1558 1560 1561 1563 1565 1566 1567 1568 1569 1571 1572 1573 1574 1575 1576 1577 1578 1579 1579 1580 1580 1581 1581 1581 1582 1583 1583 1583 1583 1584 1584 1584 1584 1584 1583 1583 1583 1583 1583 1583 1583 1583 1583 1583 1583 1583 1583 1583 1582 1582 1582 1581 1581 1581 1581 1580 1579 1580 1580 1579 1579 1579 1579
1506 1508 1510 1512 1515 1518 1521 1524 1527 1529 1532 1534 1537 1539 1541 1544 1545 1548 1550 1551 1554 1555 1557 1559 1560 1562 1563 1565 1566 1567 1568 1569 1571 1572 1573 1574 1575 1576 1577 1578 1578 1579 1579 1580 1580 1581 1581 1581 1582 1582 1583 1583 1583 1582 1583 1583 1583 1582 1582 1582 1582 1582 1582 1581 1581 1581 1581 1581 1581 1581 1581 1581 1581 1580 1580 1580 1580 1579 1578 1578 1579 1578 1578 1578 1578
1505 1507 1509 1511 1514 1516 1519 1522 1525 1527 1529 1533 1535 1537 1540 1542 1544 1546 1548 1550 1552 1554 1556 1557 1559 1560 1561 1563 1565 1566 1567 1568 1569 1571 1572 1573 1574 1574 1575 1576 1577 1578 1578 1579 1579 1580 1580 1580 1581 1581 1581 1581 1581 1581 1581 1581 1582 1581 1581 1581 1581 1581 1580 1580 1580 1580 1580 1580 1580 1580 1580 1580 1580 1580 1579 1579 1579 1578 1578 1577 1577 1577 1577 1578 1578
1503 1506 1508 1511 1513 1515 1517 1520 1523 1525 1528 1530 1533 1536 1538 1540 1542 1544 1546 1548 1550 1552 1554 1555 1557 1559 1560 1561 1563 1564 1566 1567 1568 1570 1570 1572 1573 1574 1574 1575 1576 1577 1577 1578 1578 1579 1579 1579 1579 1579 1579 1579 1580 1580 1580 1580 1581 1580 1580 1580 1580 1580 1580 1580 1580 1580 1579 1579 1579 1579 1579 1579 1579 1578 1578 1578 1577 1577 1577 1577 1576 1576 1576 1577 1577
1502 1505 1507 1510 1512 1513 1516 1519 1521 1524 1526 1528 1531 1534 1536 1538 1541 1543 1545 1547 1549 1551 1552 1553 1555 1557 1558 1560 1561 1562 1564 1565 1567 1568 1569 1570 1571 1572 1573 1574 1575 1575 1576 1576 1576 1577 1578 1577 1577 1578 1578 1577 1578 1578 1579 1579 1579 1580 1580 1579 1579 1579 1579 1580 1580 1579 1579 1579 1579 1579 1578 1578 1578 1577 1577 1576 1576 1576 1576 1575 1575 1575 1575 1576 1576
1502 1504 1506 1508 1510 1512 1514 1517 1520 1522 1524 1526 1529 1532 1534 1536 1539 1541 1543 1545 1547 1549 1550 1551 1553 1554 1556 1558 1559 1561 1562 1563 1565 1566 1568 1569 1570 1571 1572 1572 1573 1574 1575 1575 1575 1575 1576 1576 1576 1576 1576 1576 1576 1577 1578 1578 1579 1579 1579 1578 1578 1578 1579 1579 1579 1579 1579 1579 1578 1578 1578 1577 1577 1576 1576 1575 1575 1575 1575 1574 1574 1574 1574 1574 1574
1502 1503 1505 1507 1508 1510 1512 1515 1518 1520 1522 1525 1527 1530 1533 1534 1536 1538 1540 1542 1544 1546 1548 1549 1550 1552 1554 1556 1557 1559 1561 1562 1563 1564 1566 1567 1568 1570 1570 1571 1571 1572 1573 1573 1573 1573 1573 1574 1574 1575 1575 1575 1575 1576 1577 1577 1578 1578 1578 1577 1577 1577 1578 1578 1578 1578 1578 1578 1578 1578 1577 1576 1576 1576 1575 1574 1574 1574 1574 1574 1573 1572 1572 1572 1572
1501 1501 1503 1504 1506 1508 1510 1513 1516 1518 1520 1523 1525 1528 1531 1532 1534 1536 1538 1539 1541 1543 1545 1546 1548 1550 1552 1553 1555 1557 1559 1560 1562 1563 1564 1565 1567 1568 1569 1569 1570 1570 1571 1571 1572 1572 1572 1572 1573 1574 1574 1574 1575 1575 1575 1576 1577 1577 1577 1577 1577 1577 1577 1577 1577 1577 1577 1577 1577 1577 1576 1575 1575 1574 1574 1573 1573 1572 1572 1572 1572 1571 1571 1571 1571
1500 1501 1501 1502 1505 1507 1508 1511 1514 1516 1518 1520 1523 1526 1528 1530 1531 1533 1535 1537 1539 1541 1542 1544 1546 1547 1549 1551 1553 1555 1557 1558 1559 1561 1562 1563 1565 1566 1567 1568 1568 1569 1570 1570 1570 1571 1571 1571 1571 1571 1572 1572 1573 1573 1573 1574 1575 1575 1576 1576 1576 1576 1576 1576 1576 1576 1576 1576 1575 1575 1574 1573 1572 1572 1572 1572 1571 1571 1570 1570 1569 1570 1569 1569 1569
1499 1500 1501 1502 1504 1505 1507 1510 1512 1514 1516 1518 1521 1523 1525 1527 1529 1531 1533 1535 1537 1538 1540 1542 1543 1545 1547 1548 1550 1552 1554 1555 1556 1557 1559 1560 1562 1563 1564 1565 1566 1567 1568 1568 1569 1569 1570 1570 1570 1571 1571 1571 1571 1571 1572 1573 1574 1574 1575 1575 1575 1575 1575 1575 1575 1575 1574 1574 1573 1573 1572 1571 1571 1570 1570 1570 1569 1568 1568 1568 1567 1568 1568 1568 1567
1500 1500 1501 1502 1503 1505 1506 1508 1510 1512 1514 1516 1519 1521 1523 1525 1527 1529 1531 1532 1534 1536 1537 1539 1541 1542 1544 1545 1547 1549 1550 1551 1553 1555 1556 1558 1559 1560 1561 1562 1563 1564 1565 1566 1567 1567 1568 1569 1569 1568 1569 1569 1569 1570 1571 1572 1573 1573 1574 1574 1574 1574 1574 1574 1573 1573 1572 1572 1572 1571 1570 1569 1568 1568 1568 1568 1567 1567 1566 1566 1566 1566 1566 1566 1566
1502 1501 1501 1501 1503 1506 1507 1507 1508 1510 1512 1514 1517 1519 1521 1523 1525 1527 1529 1531 1532 1533 1535 1536 1538 1539 1541 1542 1543 1545 1547 1548 1551 1553 1554 1555 1557 1557 1558 1559 1560 1561 1563 1564 1564 1565 1566 1567 1566 1565 1566 1567 1569 1570 1571 1571 1572 1572 1572 1572 1573 1573 1573 1572 1572 1572 1571 1570 1570 1569 1568 1567 1566 1566 1567 1566 1565 1565 1565 1564 1564 1564 1564 1564 1564
1501 1502 1502 1502 1504 1506 1507 1506 1506 1508 1511 1513 1515 1518 1520 1522 1524 1526 1527 1529 1530 1531 1533 1534 1535 1536 1537 1538 1540 1542 1544 1546 1548 1550 1551 1553 1554 1555 1556 1557 1558 1559 1561 1561 1562 1563 1564 1565 1564 1564 1565 1566 1567 1569 1569 1569 1570 1570 1570 1571 1571 1571 1571 1571 1570 1570 1570 1570 1569 1567 1567 1567 1566 1566 1565 1564 1563 1563 1562 1562 1562 1561 1562 1562 1561
1497 1501 1502 1502 1503 1504 1505 1505 1506 1508 1511 1512 1514 1517 1519 1521 1523 1524 1526 1527 1529 1530 1531 1532 1533 1533 1534 1535 1537 1539 1541 1543 1545 1547 1548 1550 1552 1553 1555 1556 1557 1558 1558 1558 1559 1560 1561 1562 1562 1562 1563 1563 1564 1566 1567 1567 1568 1568 1568 1569 1569 1568 1569 1568 1568 1568 1568 1568 1567 1565 1565 1565 1565 1564 1564 1563 1563 1562 1561 1560 1559 1558 1559 1559 1558
1493 1497 1500 1501 1503 1504 1504 1506 1508 1509 1510 1512 1513 1516 1518 1520 1521 1523 1525 1526 1527 1528 1529 1530 1531 1531 1531 1533 1535 1536 1539 1540 1542 1545 1546 1548 1549 1551 1552 1553 1554 1555 1556 1556 1556 1558 1559 1560 1561 1559 1559 1560 1561 1563 1564 1565 1566 1566 1566 1566 1566 1566 1566 1566 1566 1566 1565 1565 1564 1563 1562 1562 1562 1561 1561 1560 1560 1559 1558 1557 1556 1555 1556 1556 1555
1493 1496 1499 1500 1502 1504 1505 1506 1508 1509 1510 1511 1512 1515 1517 1519 1520 1522 1523 1524 1526 1527 1528 1529 1529 1529 1529 1531 1532 1534 1537 1538 1540 1542 1544 1545 1547 1548 1549 1551 1552 1553 1554 1554 1555 1556 1556 1558 1558 1556 1556 1558 1559 1561 1562 1563 1563 1563 1564 1564 1564 1564 1564 1564 1564 1564 1563 1562 1561 1560 1559 1559 1559 1557 1556 1556 1556 1555 1554 1554 1553 1552 1553 1552 1552
1495 1497 1499 1499 1501 1504 1504 1504 1506 1508 1509 1510 1512 1513 1515 1517 1518 1519 1520 1521 1522 1523 1525 1526 1527 1527 1528 1529 1530 1532 1534 1536 1538 1540 1542 1544 1545 1546 1547 1549 1550 1551 1552 1554 1555 1554 1554 1554 1555 1555 1555 1557 1558 1559 1560 1561 1561 1561 1561 1561 1561 1562 1562 1562 1561 1561 1560 1560 1559 1558 1557 1556 1555 1553 1552 1552 1552 1551 1550 1550 1549 1549 1548 1548 1548
1497 1499 1499 1499 1501 1502 1501 1502 1504 1506 1508 1509 1511 1512 1514 1516 1517 1518 1518 1519 1520 1521 1522 1523 1525 1525 1526 1527 1529 1530 1532 1535 1537 1538 1540 1541 1542 1544 1545 1546 1547 1548 1550 1552 1553 1552 1552 1553 1554 1554 1555 1556 1557 1557 1558 1559 1559 1559 1559 1559 1559 1559 1559 1559 1559 1558 1558 1558 1557 1556 1554 1554 1552 1551 1550 1549 1548 1547 1547 1546 1545 1545 1544 1543 1543
1498 1499 1499 1499 1500 1500 1500 1502 1505 1507 1508 1510 1510 1511 1513 1515 1517 1517 1518 1518 1519 1520 1521 1522 1523 1524 1525 1526 1528 1529 1531 1534 1535 1535 1537 1538 1539 1541 1542 1543 1544 1545 1547 1549 1550 1550 1550 1550 1551 1552 1553 1554 1555 1555 1556 1557 1557 1558 1558 1557 1557 1557 1557 1557 1557 1556 1556 1556 1556 1554 1552 1551 1550 1549 1548 1547 1546 1545 1544 1544 1543 1542 1541 1540 1538
1500 1499 1499 1498 1499 1500 1501 1503 1506 1508 1508 1509 1510 1511 1513 1515 1516 1517 1517 1518 1518 1519 1520 1521 1522 1523 1524 1526 1527 1529 1531 1532 1532 1533 1534 1535 1536 1538 1539 1540 1541 1542 1543 1546 1547 1548 1548 1548 1549 1551 1551 1552 1553 1554 1554 1555 1556 1556 1556 1556 1555 1555 1555 1555 1555 1554 1555 1555 1554 1552 1550 1550 1549 1548 1547 1546 1545 1544 1543 1542 1542 1540 1539 1537 1535
1502 1501 1500 1500 1501 1502 1504 1506 1508 1509 1508 1509 1510 1511 1513 1515 1516 1516 1517 1517 1518 1518 1519 1520 1520 1521 1523 1525 1527 1528 1530 1530 1531 1532 1533 1533 1533 1535 1536 1537 1539 1539 1540 1543 1545 1547 1549 1550 1550 1549 1550 1551 1552 1552 1554 1554 1555 1555 1555 1555 1554 1554 1553 1553 1553 1553 1553 1553 1552 1551 1550 1549 1548 1547 1546 1545 1544 1543 1542 1541 1540 1538 1537 1535 1533
1504 1504 1504 1504 1504 1506 1507 1509 1510 1510 1509 1509 1510 1512 1514 1516 1516 1517 1518 1518 1518 1518 1518 1519 1520 1521 1523 1525 1527 1527 1528 1530 1532 1532 1533 1534 1534 1534 1536 1537 1538 1538 1540 1542 1545 1547 1550 1551 1550 1549 1550 1551 1551 1552 1554 1554 1555 1555 1555 1554 1554 1553 1553 1552 1551 1551 1551 1551 1550 1550 1549 1548 1547 1546 1545 1544 1543 1542 1541 1540 1538 1537 1535 1533 1531
1506 1506 1507 1506 1506 1507 1508 1509 1509 1509 1509 1510 1511 1513 1516 1517 1518 1519 1520 1520 1519 1520 1520 1521 1521 1523 1524 1525 1527 1527 1529 1532 1533 1534 1535 1536 1536 1536 1537 1537 1538 1540 1541 1543 1546 1548 1549 1550 1550 1551 1552 1552 1552 1553 1554 1555 1555 1555 1555 1554 1554 1553 1552 1551 1550 1550 1550 1549 1549 1549 1548 1547 1547 1546 1545 1544 1543 1541 1540 1539 1537 1536 1534 1533 1531
1509 1509 1509 1508 1508 1509 1509 1509 1510 1510 1511 1513 1515 1516 1518 1519 1520 1521 1522 1522 1522 1523 1524 1524 1524 1526 1527 1528 1528 1529 1531 1534 1535 1536 1537 1538 1538 1539 1539 1540 1541 1543 1544 1545 1546 1548 1550 1551 1552 1553 1554 1554 1553 1554 1554 1555 1555 1555 1555 1554 1553 1552 1551 1550 1549 1549 1548 1548 1548 1548 1547 1547 1546 1545 1544 1543 1542 1541 1540 1538 1537 1535 1534 1532 1530
1512 1512 1511 1511 1510 1510 1511 1512 1512 1513 1515 1517 1519 1520 1520 1521 1522 1524 1524 1524 1525 1525 1526 1527 1528 1529 1531 1531 1531 1532 1534 1536 1537 1538 1539 1540 1540 1540 1541 1542 1543 1544 1545 1545 1546 1549 1551 1552 1553 1553 1553 1553 1553 1554 1554 1555 1555 1555 1555 1554 1553 1552 1551 1550 1549 1548 1548 1548 1548 1547 1547 1546 1546 1545 1544 1543 1542 1541 1540 1538 1537 1535 1534 1533 1532
1514 1514 1514 1513 1512 1513 1514 1515 1516 1518 1519 1521 1522 1523 1523 1524 1525 1526 1527 1527 1528 1528 1528 1529 1530 1531 1533 1534 1535 1536 1537 1539 1540 1541 1541 1541 1541 1541 1542 1544 1545 1546 1546 1545 1546 1549 1552 1553 1553 1552 1552 1553 1554 1555 1555 1555 1555 1555 1554 1553 1552 1551 1550 1549 1549 1548 1547 1547 1547 1547 1546 1546 1546 1545 1544 1543 1543 1542 1541 1539 1538 1536 1535 1535 1534
1517 1517 1517 1517 1516 1516 1516 1518 1520 1522 1523 1524 1525 1526 1527 1528 1529 1529 1530 1530 1530 1531 1531 1532 1533 1534 1536 1537 1538 1539 1541 1542 1543 1544 1544 1543 1543 1543 1545 1545 1546 1547 1547 1547 1547 1549 1551 1552 1553 1553 1554 1555 1556 1556 1556 1555 1554 1553 1552 1551 1551 1550 1549 1549 1548 1547 1547 1547 1547 1546 1546 1546 1546 1545 1544 1544 1543 1542 1541 1540 1539 1539 1538 1537 1536
1519 1519 1520 1520 1519 1519 1519 1520 1522 1524 1527 1528 1528 1529 1530 1531 1532 1533 1533 1533 1533 1534 1535 1536 1537 1537 1538 1539 1540 1542 1543 1544 1545 1545 1545 1545 1545 1545 1546 1546 1547 1548 1548 1548 1549 1550 1551 1553 1553 1554 1555 1556 1556 1555 1555 1554 1553 1552 1551 1551 1550 1549 1549 1548 1548 1547 1547 1546 1546 1546 1546 1546 1546 1545 1544 1544 1544 1543 1542 1542 1541 1540 1540 1539 1537
1520 1520 1521 1521 1522 1522 1522 1522 1524 1526 1529 1530 1531 1532 1533 1533 1534 1535 1536 1536 1536 1537 1538 1539 1540 1540 1541 1542 1543 1544 1544 1545 1546 1546 1546 1546 1547 1547 1547 1548 1548 1549 1549 1550 1550 1551 1552 1552 1553 1554 1554 1554 1554 1554 1553 1553 1552 1551 1551 1550 1549 1549 1548 1548 1547 1547 1546 1546 1546 1546 1546 1546 1546 1546 1546 1546 1546 1545 1544 1543 1542 1541 1540 1539 1538
1521 1521 1522 1524 1525 1524 1524 1525 1527 1529 1531 1532 1533 1534 1535 1536 1537 1538 1538 1539 1540 1540 1541 1542 1542 1543 1544 1544 1545 1545 1546 1547 1547 1548 1548 1549 1549 1549 1549 1549 1550 1550 1551 1551 1551 1552 1552 1552 1553 1553 1554 1554 1553 1553 1552 1552 1551 1550 1550 1549 1549 1548 1548 1547 1547 1547 1547 1546 1546 1546 1547 1547 1547 1547 1547 1546 1546 1546 1545 1544 1543 1542 1541 1540 1538
1522 1523 1524 1526 1527 1527 1527 1528 1529 1531 1532 1534 1535 1536 1537 1538 1539 1540 1540 1541 1542 1542 1543 1543 1544 1545 1545 1546 1547 1547 1548 1548 1549 1550 1550 1551 1551 1551 1551 1552 1552 1552 1552 1552 1552 1553 1553 1553 1553 1553 1553 1553 1553 1552 1552 1551 1551 1550 1550 1549 1549 1548 1548 1547 1547 1547 1547 1547 1547 1547 1547 1547 1547 1547 1547 1547 1546 1546 1545 1545 1544 1543 1541 1540 1538